date,time,SUV Intensity [MED/Hr],UV Index,Daily total [MED],Since Last [MED]
17/12/2022,00:00:38,0.000,0.0,0.0,0.0
17/12/2022,00:01:38,0.000,0.0,0.0,0.0
17/12/2022,00:02:38,0.000,0.0,0.0,0.0
17/12/2022,00:03:39,0.000,0.0,0.0,0.0
17/12/2022,00:04:38,0.001,0.0,0.0,0.0
17/12/2022,00:05:38,0.001,0.0,0.0,0.0
17/12/2022,00:06:38,0.001,0.0,0.0,0.0
17/12/2022,00:07:38,0.000,0.0,0.0,0.0
17/12/2022,00:08:39,0.000,0.0,0.0,0.0
17/12/2022,00:09:38,0.000,0.0,0.0,0.0
17/12/2022,00:10:38,0.000,0.0,0.0,0.0
17/12/2022,00:11:38,0.000,0.0,0.0,0.0
17/12/2022,00:12:38,-0.001,0.0,0.0,0.0
17/12/2022,00:13:39,-0.000,0.0,0.0,0.0
17/12/2022,00:14:38,0.000,0.0,0.0,0.0
17/12/2022,00:15:38,0.000,0.0,0.0,0.0
17/12/2022,00:16:38,-0.001,0.0,0.0,0.0
17/12/2022,00:17:38,-0.000,0.0,0.0,0.0
17/12/2022,00:18:38,0.000,0.0,0.0,0.0
17/12/2022,00:19:38,0.000,0.0,0.0,0.0
17/12/2022,00:20:38,0.001,0.0,0.0,0.0
17/12/2022,00:21:39,0.001,0.0,0.0,0.0
17/12/2022,00:22:38,0.000,0.0,0.0,0.0
17/12/2022,00:23:39,0.000,0.0,0.0,0.0
17/12/2022,00:24:38,-0.000,0.0,0.0,0.0
17/12/2022,00:25:39,0.000,0.0,0.0,0.0
17/12/2022,00:26:38,-0.001,0.0,0.0,0.0
17/12/2022,00:27:38,0.000,0.0,0.0,0.0
17/12/2022,00:28:39,0.000,0.0,0.0,0.0
17/12/2022,00:29:38,0.001,0.0,0.0,0.0
17/12/2022,00:30:38,0.001,0.0,0.0,0.0
17/12/2022,00:31:38,0.001,0.0,0.0,0.0
17/12/2022,00:32:38,0.000,0.0,0.0,0.0
17/12/2022,00:33:39,-0.001,0.0,0.0,0.0
17/12/2022,00:34:38,-0.000,0.0,0.0,0.0
17/12/2022,00:35:38,-0.000,0.0,0.0,0.0
17/12/2022,00:36:38,0.000,0.0,0.0,0.0
17/12/2022,00:37:38,-0.000,0.0,0.0,0.0
17/12/2022,00:38:39,0.001,0.0,0.0,0.0
17/12/2022,00:39:38,-0.000,0.0,0.0,0.0
17/12/2022,00:40:38,0.000,0.0,0.0,0.0
17/12/2022,00:41:38,-0.000,0.0,0.0,0.0
17/12/2022,00:42:38,0.000,0.0,0.0,0.0
17/12/2022,00:43:38,0.000,0.0,0.0,0.0
17/12/2022,00:44:38,0.000,0.0,0.0,0.0
17/12/2022,00:45:39,0.001,0.0,0.0,0.0
17/12/2022,00:46:38,-0.000,0.0,0.0,0.0
17/12/2022,00:47:38,0.001,0.0,0.0,0.0
17/12/2022,00:48:39,-0.000,0.0,0.0,0.0
17/12/2022,00:49:38,0.001,0.0,0.0,0.0
17/12/2022,00:50:39,0.000,0.0,0.0,0.0
17/12/2022,00:51:38,0.000,0.0,0.0,0.0
17/12/2022,00:52:38,-0.001,0.0,0.0,0.0
17/12/2022,00:53:38,-0.001,0.0,0.0,0.0
17/12/2022,00:54:38,-0.000,0.0,0.0,0.0
17/12/2022,00:55:39,0.000,0.0,0.0,0.0
17/12/2022,00:56:38,0.000,0.0,0.0,0.0
17/12/2022,00:57:39,-0.000,0.0,0.0,0.0
17/12/2022,00:58:38,0.000,0.0,0.0,0.0
17/12/2022,00:59:38,0.001,0.0,0.0,0.0
17/12/2022,01:00:39,0.000,0.0,0.0,0.0
17/12/2022,01:01:38,0.001,0.0,0.0,0.0
17/12/2022,01:02:38,-0.000,0.0,0.0,0.0
17/12/2022,01:03:39,-0.000,0.0,0.0,0.0
17/12/2022,01:04:38,-0.000,0.0,0.0,0.0
17/12/2022,01:05:38,-0.000,0.0,0.0,0.0
17/12/2022,01:06:38,-0.000,0.0,0.0,0.0
17/12/2022,01:07:38,-0.000,0.0,0.0,0.0
17/12/2022,01:08:38,-0.000,0.0,0.0,0.0
17/12/2022,01:09:38,-0.000,0.0,0.0,0.0
17/12/2022,01:10:38,-0.001,0.0,0.0,0.0
17/12/2022,01:11:38,0.001,0.0,0.0,0.0
17/12/2022,01:12:38,-0.000,0.0,0.0,0.0
17/12/2022,01:13:38,0.001,0.0,0.0,0.0
17/12/2022,01:14:39,-0.000,0.0,0.0,0.0
17/12/2022,01:15:38,-0.001,0.0,0.0,0.0
17/12/2022,01:16:38,0.000,0.0,0.0,0.0
17/12/2022,01:17:39,-0.000,0.0,0.0,0.0
17/12/2022,01:18:38,-0.000,0.0,0.0,0.0
17/12/2022,01:19:38,0.001,0.0,0.0,0.0
17/12/2022,01:20:39,-0.000,0.0,0.0,0.0
17/12/2022,01:21:38,-0.000,0.0,0.0,0.0
17/12/2022,01:22:39,0.000,0.0,0.0,0.0
17/12/2022,01:23:38,-0.000,0.0,0.0,0.0
17/12/2022,01:24:39,-0.000,0.0,0.0,0.0
17/12/2022,01:25:39,0.000,0.0,0.0,0.0
17/12/2022,01:26:39,0.000,0.0,0.0,0.0
17/12/2022,01:27:38,-0.001,0.0,0.0,0.0
17/12/2022,01:28:39,-0.000,0.0,0.0,0.0
17/12/2022,01:29:38,-0.001,0.0,0.0,0.0
17/12/2022,01:30:39,-0.000,0.0,0.0,0.0
17/12/2022,01:31:38,0.000,0.0,0.0,0.0
17/12/2022,01:32:38,-0.000,0.0,0.0,0.0
17/12/2022,01:33:38,-0.000,0.0,0.0,0.0
17/12/2022,01:34:39,-0.001,0.0,0.0,0.0
17/12/2022,01:35:38,-0.000,0.0,0.0,0.0
17/12/2022,01:36:38,-0.001,0.0,0.0,0.0
17/12/2022,01:37:39,0.001,0.0,0.0,0.0
17/12/2022,01:38:38,-0.000,0.0,0.0,0.0
17/12/2022,01:39:38,-0.000,0.0,0.0,0.0
17/12/2022,01:40:39,-0.001,0.0,0.0,0.0
17/12/2022,01:41:39,-0.000,0.0,0.0,0.0
17/12/2022,01:42:39,-0.001,0.0,0.0,0.0
17/12/2022,01:43:38,-0.000,0.0,0.0,0.0
17/12/2022,01:44:39,-0.000,0.0,0.0,0.0
17/12/2022,01:45:38,-0.001,0.0,0.0,0.0
17/12/2022,01:46:39,-0.001,0.0,0.0,0.0
17/12/2022,01:47:38,-0.001,0.0,0.0,0.0
17/12/2022,01:48:38,0.000,0.0,0.0,0.0
17/12/2022,01:49:38,-0.001,0.0,0.0,0.0
17/12/2022,01:50:42,-0.001,0.0,0.0,0.0
17/12/2022,01:51:39,-0.001,0.0,0.0,0.0
17/12/2022,01:52:38,-0.001,0.0,0.0,0.0
17/12/2022,01:53:39,-0.000,0.0,0.0,0.0
17/12/2022,01:54:38,-0.001,0.0,0.0,0.0
17/12/2022,01:55:38,-0.001,0.0,0.0,0.0
17/12/2022,01:56:38,0.000,0.0,0.0,0.0
17/12/2022,01:57:38,0.001,0.0,0.0,0.0
17/12/2022,01:58:39,-0.001,0.0,0.0,0.0
17/12/2022,01:59:38,-0.001,0.0,0.0,0.0
17/12/2022,02:00:39,-0.001,0.0,0.0,0.0
17/12/2022,02:01:38,-0.000,0.0,0.0,0.0
17/12/2022,02:02:38,-0.000,0.0,0.0,0.0
17/12/2022,02:03:38,-0.000,0.0,0.0,0.0
17/12/2022,02:04:38,0.000,0.0,0.0,0.0
17/12/2022,02:05:39,-0.001,0.0,0.0,0.0
17/12/2022,02:06:39,-0.000,0.0,0.0,0.0
17/12/2022,02:07:39,-0.001,0.0,0.0,0.0
17/12/2022,02:08:38,-0.000,0.0,0.0,0.0
17/12/2022,02:09:39,-0.001,0.0,0.0,0.0
17/12/2022,02:10:38,0.001,0.0,0.0,0.0
17/12/2022,02:11:39,0.000,0.0,0.0,0.0
17/12/2022,02:12:38,-0.000,0.0,0.0,0.0
17/12/2022,02:13:38,0.000,0.0,0.0,0.0
17/12/2022,02:14:38,0.001,0.0,0.0,0.0
17/12/2022,02:15:39,-0.001,0.0,0.0,0.0
17/12/2022,02:16:39,-0.001,0.0,0.0,0.0
17/12/2022,02:17:38,-0.000,0.0,0.0,0.0
17/12/2022,02:18:38,-0.001,0.0,0.0,0.0
17/12/2022,02:19:39,-0.000,0.0,0.0,0.0
17/12/2022,02:20:38,0.000,0.0,0.0,0.0
17/12/2022,02:21:38,-0.000,0.0,0.0,0.0
17/12/2022,02:22:38,0.000,0.0,0.0,0.0
17/12/2022,02:23:38,-0.001,0.0,0.0,0.0
17/12/2022,02:24:38,-0.001,0.0,0.0,0.0
17/12/2022,02:25:39,-0.001,0.0,0.0,0.0
17/12/2022,02:26:38,-0.000,0.0,0.0,0.0
17/12/2022,02:27:38,-0.000,0.0,0.0,0.0
17/12/2022,02:28:38,-0.001,0.0,0.0,0.0
17/12/2022,02:29:39,-0.001,0.0,0.0,0.0
17/12/2022,02:30:38,-0.000,0.0,0.0,0.0
17/12/2022,02:31:38,-0.001,0.0,0.0,0.0
17/12/2022,02:32:38,-0.001,0.0,0.0,0.0
17/12/2022,02:33:38,-0.001,0.0,0.0,0.0
17/12/2022,02:34:38,-0.000,0.0,0.0,0.0
17/12/2022,02:35:38,-0.001,0.0,0.0,0.0
17/12/2022,02:36:39,-0.001,0.0,0.0,0.0
17/12/2022,02:37:38,-0.001,0.0,0.0,0.0
17/12/2022,02:38:39,-0.001,0.0,0.0,0.0
17/12/2022,02:39:38,-0.000,0.0,0.0,0.0
17/12/2022,02:40:39,-0.001,0.0,0.0,0.0
17/12/2022,02:41:38,-0.000,0.0,0.0,0.0
17/12/2022,02:42:39,0.000,0.0,0.0,0.0
17/12/2022,02:43:38,0.000,0.0,0.0,0.0
17/12/2022,02:44:38,0.000,0.0,0.0,0.0
17/12/2022,02:45:39,-0.000,0.0,0.0,0.0
17/12/2022,02:46:39,0.000,0.0,0.0,0.0
17/12/2022,02:47:39,-0.000,0.0,0.0,0.0
17/12/2022,02:48:38,-0.001,0.0,0.0,0.0
17/12/2022,02:49:39,-0.000,0.0,0.0,0.0
17/12/2022,02:50:38,-0.001,0.0,0.0,0.0
17/12/2022,02:51:39,-0.001,0.0,0.0,0.0
17/12/2022,02:52:38,-0.001,0.0,0.0,0.0
17/12/2022,02:53:38,-0.001,0.0,0.0,0.0
17/12/2022,02:54:39,0.000,0.0,0.0,0.0
17/12/2022,02:55:38,-0.001,0.0,0.0,0.0
17/12/2022,02:56:38,-0.001,0.0,0.0,0.0
17/12/2022,02:57:38,0.000,0.0,0.0,0.0
17/12/2022,02:58:38,0.000,0.0,0.0,0.0
17/12/2022,02:59:38,0.000,0.0,0.0,0.0
17/12/2022,03:00:39,0.001,0.0,0.0,0.0
17/12/2022,03:01:38,0.001,0.0,0.0,0.0
17/12/2022,03:02:39,-0.002,0.0,0.0,0.0
17/12/2022,03:03:39,-0.001,0.0,0.0,0.0
17/12/2022,03:04:39,-0.001,0.0,0.0,0.0
17/12/2022,03:05:38,-0.000,0.0,0.0,0.0
17/12/2022,03:06:39,-0.001,0.0,0.0,0.0
17/12/2022,03:07:38,-0.001,0.0,0.0,0.0
17/12/2022,03:08:38,-0.001,0.0,0.0,0.0
17/12/2022,03:09:39,-0.000,0.0,0.0,0.0
17/12/2022,03:10:39,-0.001,0.0,0.0,0.0
17/12/2022,03:11:38,0.000,0.0,0.0,0.0
17/12/2022,03:12:39,-0.001,0.0,0.0,0.0
17/12/2022,03:13:38,-0.000,0.0,0.0,0.0
17/12/2022,03:14:39,0.001,0.0,0.0,0.0
17/12/2022,03:15:38,-0.002,0.0,0.0,0.0
17/12/2022,03:16:39,0.000,0.0,0.0,0.0
17/12/2022,03:17:38,-0.001,0.0,0.0,0.0
17/12/2022,03:18:39,-0.000,0.0,0.0,0.0
17/12/2022,03:19:38,-0.000,0.0,0.0,0.0
17/12/2022,03:20:38,-0.001,0.0,0.0,0.0
17/12/2022,03:21:39,0.001,0.0,0.0,0.0
17/12/2022,03:22:38,-0.001,0.0,0.0,0.0
17/12/2022,03:23:39,0.000,0.0,0.0,0.0
17/12/2022,03:24:38,-0.000,0.0,0.0,0.0
17/12/2022,03:25:39,-0.000,0.0,0.0,0.0
17/12/2022,03:26:39,-0.001,0.0,0.0,0.0
17/12/2022,03:27:38,-0.001,0.0,0.0,0.0
17/12/2022,03:28:39,-0.000,0.0,0.0,0.0
17/12/2022,03:29:38,-0.000,0.0,0.0,0.0
17/12/2022,03:31:01,-0.001,0.0,0.0,0.0
17/12/2022,03:31:38,-0.001,0.0,0.0,0.0
17/12/2022,03:32:39,-0.002,0.0,0.0,0.0
17/12/2022,03:33:38,-0.000,0.0,0.0,0.0
17/12/2022,03:34:38,-0.001,0.0,0.0,0.0
17/12/2022,03:35:39,0.000,0.0,0.0,0.0
17/12/2022,03:36:38,-0.002,0.0,0.0,0.0
17/12/2022,03:37:39,-0.001,0.0,0.0,0.0
17/12/2022,03:38:38,-0.002,0.0,0.0,0.0
17/12/2022,03:39:39,-0.001,0.0,0.0,0.0
17/12/2022,03:40:38,-0.001,0.0,0.0,0.0
17/12/2022,03:41:39,-0.001,0.0,0.0,0.0
17/12/2022,03:42:38,-0.002,0.0,0.0,0.0
17/12/2022,03:43:38,-0.001,0.0,0.0,0.0
17/12/2022,03:44:39,-0.001,0.0,0.0,0.0
17/12/2022,03:45:39,-0.001,0.0,0.0,0.0
17/12/2022,03:46:39,-0.001,0.0,0.0,0.0
17/12/2022,03:47:38,0.000,0.0,0.0,0.0
17/12/2022,03:48:38,-0.001,0.0,0.0,0.0
17/12/2022,03:49:39,-0.002,0.0,0.0,0.0
17/12/2022,03:50:38,-0.001,0.0,0.0,0.0
17/12/2022,03:51:39,-0.002,0.0,0.0,0.0
17/12/2022,03:52:38,-0.000,0.0,0.0,0.0
17/12/2022,03:53:38,-0.002,0.0,0.0,0.0
17/12/2022,03:54:39,-0.002,0.0,0.0,0.0
17/12/2022,03:55:38,-0.001,0.0,0.0,0.0
17/12/2022,03:56:39,-0.001,0.0,0.0,0.0
17/12/2022,03:57:38,-0.001,0.0,0.0,0.0
17/12/2022,03:58:38,-0.001,0.0,0.0,0.0
17/12/2022,03:59:38,-0.001,0.0,0.0,0.0
17/12/2022,04:00:38,-0.001,0.0,0.0,0.0
17/12/2022,04:01:39,-0.002,0.0,0.0,0.0
17/12/2022,04:02:38,-0.001,0.0,0.0,0.0
17/12/2022,04:03:38,-0.001,0.0,0.0,0.0
17/12/2022,04:04:39,-0.001,0.0,0.0,0.0
17/12/2022,04:05:39,-0.001,0.0,0.0,0.0
17/12/2022,04:06:39,-0.001,0.0,0.0,0.0
17/12/2022,04:07:38,0.000,0.0,0.0,0.0
17/12/2022,04:08:38,-0.001,0.0,0.0,0.0
17/12/2022,04:09:38,-0.001,0.0,0.0,0.0
17/12/2022,04:10:39,-0.001,0.0,0.0,0.0
17/12/2022,04:11:39,-0.001,0.0,0.0,0.0
17/12/2022,04:12:38,-0.001,0.0,0.0,0.0
17/12/2022,04:13:39,0.000,0.0,0.0,0.0
17/12/2022,04:14:38,-0.000,0.0,0.0,0.0
17/12/2022,04:15:39,-0.000,0.0,0.0,0.0
17/12/2022,04:16:38,0.000,0.0,0.0,0.0
17/12/2022,04:17:38,0.001,0.0,0.0,0.0
17/12/2022,04:18:39,-0.001,0.0,0.0,0.0
17/12/2022,04:19:39,-0.001,0.0,0.0,0.0
17/12/2022,04:20:39,-0.002,0.0,0.0,0.0
17/12/2022,04:21:38,-0.001,0.0,0.0,0.0
17/12/2022,04:22:39,-0.001,0.0,0.0,0.0
17/12/2022,04:23:39,-0.001,0.0,0.0,0.0
17/12/2022,04:24:43,-0.000,0.0,0.0,0.0
17/12/2022,04:25:40,-0.001,0.0,0.0,0.0
17/12/2022,04:26:39,-0.001,0.0,0.0,0.0
17/12/2022,04:27:38,-0.001,0.0,0.0,0.0
17/12/2022,04:28:39,-0.001,0.0,0.0,0.0
17/12/2022,04:29:38,-0.001,0.0,0.0,0.0
17/12/2022,04:30:39,-0.001,0.0,0.0,0.0
17/12/2022,04:31:39,0.000,0.0,0.0,0.0
17/12/2022,04:32:39,-0.000,0.0,0.0,0.0
17/12/2022,04:33:38,-0.001,0.0,0.0,0.0
17/12/2022,04:34:39,-0.001,0.0,0.0,0.0
17/12/2022,04:35:39,-0.001,0.0,0.0,0.0
17/12/2022,04:36:39,-0.001,0.0,0.0,0.0
17/12/2022,04:37:38,-0.002,0.0,0.0,0.0
17/12/2022,04:38:39,-0.001,0.0,0.0,0.0
17/12/2022,04:39:39,-0.001,0.0,0.0,0.0
17/12/2022,04:40:39,0.000,0.0,0.0,0.0
17/12/2022,04:41:38,-0.001,0.0,0.0,0.0
17/12/2022,04:42:39,-0.001,0.0,0.0,0.0
17/12/2022,04:43:38,-0.000,0.0,0.0,0.0
17/12/2022,04:44:39,-0.002,0.0,0.0,0.0
17/12/2022,04:45:38,0.001,0.0,0.0,0.0
17/12/2022,04:46:39,-0.001,0.0,0.0,0.0
17/12/2022,04:47:38,-0.000,0.0,0.0,0.0
17/12/2022,04:48:38,-0.001,0.0,0.0,0.0
17/12/2022,04:49:39,-0.001,0.0,0.0,0.0
17/12/2022,04:50:39,0.000,0.0,0.0,0.0
17/12/2022,04:51:39,-0.001,0.0,0.0,0.0
17/12/2022,04:52:39,-0.001,0.0,0.0,0.0
17/12/2022,04:53:39,-0.001,0.0,0.0,0.0
17/12/2022,04:54:39,-0.001,0.0,0.0,0.0
17/12/2022,04:55:39,-0.002,0.0,0.0,0.0
17/12/2022,04:56:38,-0.001,0.0,0.0,0.0
17/12/2022,04:57:39,-0.000,0.0,0.0,0.0
17/12/2022,04:58:38,-0.002,0.0,0.0,0.0
17/12/2022,04:59:39,-0.000,0.0,0.0,0.0
17/12/2022,05:00:38,-0.001,0.0,0.0,0.0
17/12/2022,05:01:39,-0.001,0.0,0.0,0.0
17/12/2022,05:02:38,-0.001,0.0,0.0,0.0
17/12/2022,05:03:38,-0.001,0.0,0.0,0.0
17/12/2022,05:04:39,-0.001,0.0,0.0,0.0
17/12/2022,05:05:39,-0.001,0.0,0.0,0.0
17/12/2022,05:06:39,-0.001,0.0,0.0,0.0
17/12/2022,05:07:39,-0.001,0.0,0.0,0.0
17/12/2022,05:08:39,-0.001,0.0,0.0,0.0
17/12/2022,05:09:38,-0.001,0.0,0.0,0.0
17/12/2022,05:10:39,-0.001,0.0,0.0,0.0
17/12/2022,05:11:39,-0.001,0.0,0.0,0.0
17/12/2022,05:12:39,-0.001,0.0,0.0,0.0
17/12/2022,05:13:38,0.000,0.0,0.0,0.0
17/12/2022,05:14:39,-0.002,0.0,0.0,0.0
17/12/2022,05:15:39,-0.001,0.0,0.0,0.0
17/12/2022,05:16:39,-0.001,0.0,0.0,0.0
17/12/2022,05:17:38,-0.000,0.0,0.0,0.0
17/12/2022,05:18:39,-0.001,0.0,0.0,0.0
17/12/2022,05:19:39,-0.002,0.0,0.0,0.0
17/12/2022,05:20:39,-0.001,0.0,0.0,0.0
17/12/2022,05:21:39,-0.001,0.0,0.0,0.0
17/12/2022,05:22:38,-0.001,0.0,0.0,0.0
17/12/2022,05:23:39,-0.001,0.0,0.0,0.0
17/12/2022,05:24:38,-0.001,0.0,0.0,0.0
17/12/2022,05:25:39,-0.002,0.0,0.0,0.0
17/12/2022,05:26:39,-0.000,0.0,0.0,0.0
17/12/2022,05:27:39,-0.001,0.0,0.0,0.0
17/12/2022,05:28:39,-0.001,0.0,0.0,0.0
17/12/2022,05:29:39,-0.001,0.0,0.0,0.0
17/12/2022,05:30:39,-0.002,0.0,0.0,0.0
17/12/2022,05:31:38,-0.001,0.0,0.0,0.0
17/12/2022,05:32:39,-0.001,0.0,0.0,0.0
17/12/2022,05:33:39,-0.001,0.0,0.0,0.0
17/12/2022,05:34:39,-0.001,0.0,0.0,0.0
17/12/2022,05:35:39,-0.002,0.0,0.0,0.0
17/12/2022,05:36:39,-0.001,0.0,0.0,0.0
17/12/2022,05:37:38,-0.001,0.0,0.0,0.0
17/12/2022,05:38:39,-0.001,0.0,0.0,0.0
17/12/2022,05:39:38,-0.001,0.0,0.0,0.0
17/12/2022,05:40:39,-0.001,0.0,0.0,0.0
17/12/2022,05:41:38,-0.001,0.0,0.0,0.0
17/12/2022,05:42:39,-0.001,0.0,0.0,0.0
17/12/2022,05:43:39,-0.001,0.0,0.0,0.0
17/12/2022,05:44:39,-0.002,0.0,0.0,0.0
17/12/2022,05:45:39,-0.001,0.0,0.0,0.0
17/12/2022,05:46:39,-0.001,0.0,0.0,0.0
17/12/2022,05:47:38,-0.001,0.0,0.0,0.0
17/12/2022,05:48:39,-0.001,0.0,0.0,0.0
17/12/2022,05:49:42,-0.001,0.0,0.0,0.0
17/12/2022,05:50:40,-0.002,0.0,0.0,0.0
17/12/2022,05:51:38,-0.001,0.0,0.0,0.0
17/12/2022,05:52:39,-0.001,0.0,0.0,0.0
17/12/2022,05:53:39,-0.001,0.0,0.0,0.0
17/12/2022,05:54:39,-0.000,0.0,0.0,0.0
17/12/2022,05:55:39,-0.000,0.0,0.0,0.0
17/12/2022,05:56:39,-0.000,0.0,0.0,0.0
17/12/2022,05:57:39,-0.001,0.0,0.0,0.0
17/12/2022,05:58:39,-0.001,0.0,0.0,0.0
17/12/2022,05:59:39,-0.001,0.0,0.0,0.0
17/12/2022,06:00:39,-0.001,0.0,0.0,0.0
17/12/2022,06:01:39,-0.001,0.0,0.0,0.0
17/12/2022,06:02:39,-0.001,0.0,0.0,0.0
17/12/2022,06:03:39,-0.001,0.0,0.0,0.0
17/12/2022,06:04:39,-0.002,0.0,0.0,0.0
17/12/2022,06:05:39,-0.001,0.0,0.0,0.0
17/12/2022,06:06:39,-0.002,0.0,0.0,0.0
17/12/2022,06:07:38,-0.001,0.0,0.0,0.0
17/12/2022,06:08:39,0.000,0.0,0.0,0.0
17/12/2022,06:09:38,-0.001,0.0,0.0,0.0
17/12/2022,06:10:39,-0.001,0.0,0.0,0.0
17/12/2022,06:11:39,-0.001,0.0,0.0,0.0
17/12/2022,06:12:39,-0.001,0.0,0.0,0.0
17/12/2022,06:13:39,-0.002,0.0,0.0,0.0
17/12/2022,06:14:39,-0.002,0.0,0.0,0.0
17/12/2022,06:15:39,-0.002,0.0,0.0,0.0
17/12/2022,06:16:39,-0.001,0.0,0.0,0.0
17/12/2022,06:17:39,-0.001,0.0,0.0,0.0
17/12/2022,06:18:39,-0.002,0.0,0.0,0.0
17/12/2022,06:19:39,-0.001,0.0,0.0,0.0
17/12/2022,06:20:38,-0.000,0.0,0.0,0.0
17/12/2022,06:21:39,-0.001,0.0,0.0,0.0
17/12/2022,06:22:39,-0.001,0.0,0.0,0.0
17/12/2022,06:23:39,-0.001,0.0,0.0,0.0
17/12/2022,06:24:39,-0.001,0.0,0.0,0.0
17/12/2022,06:25:38,-0.001,0.0,0.0,0.0
17/12/2022,06:26:39,0.000,0.0,0.0,0.0
17/12/2022,06:27:39,-0.002,0.0,0.0,0.0
17/12/2022,06:28:39,-0.001,0.0,0.0,0.0
17/12/2022,06:29:39,-0.000,0.0,0.0,0.0
17/12/2022,06:30:39,-0.001,0.0,0.0,0.0
17/12/2022,06:31:39,-0.001,0.0,0.0,0.0
17/12/2022,06:32:39,-0.001,0.0,0.0,0.0
17/12/2022,06:33:38,-0.001,0.0,0.0,0.0
17/12/2022,06:34:39,-0.002,0.0,0.0,0.0
17/12/2022,06:35:41,-0.001,0.0,0.0,0.0
17/12/2022,06:36:39,0.000,0.0,0.0,0.0
17/12/2022,06:37:39,-0.000,0.0,0.0,0.0
17/12/2022,06:38:39,-0.001,0.0,0.0,0.0
17/12/2022,06:39:40,-0.001,0.0,0.0,0.0
17/12/2022,06:40:39,-0.002,0.0,0.0,0.0
17/12/2022,06:41:39,-0.002,0.0,0.0,0.0
17/12/2022,06:42:40,-0.001,0.0,0.0,0.0
17/12/2022,06:43:39,-0.001,0.0,0.0,0.0
17/12/2022,06:44:39,-0.001,0.0,0.0,0.0
17/12/2022,06:45:39,-0.001,0.0,0.0,0.0
17/12/2022,06:46:39,-0.001,0.0,0.0,0.0
17/12/2022,06:47:39,-0.002,0.0,0.0,0.0
17/12/2022,06:48:38,-0.002,0.0,0.0,0.0
17/12/2022,06:49:39,-0.001,0.0,0.0,0.0
17/12/2022,06:50:39,-0.001,0.0,0.0,0.0
17/12/2022,06:51:39,-0.001,0.0,0.0,0.0
17/12/2022,06:52:39,-0.002,0.0,0.0,0.0
17/12/2022,06:53:38,-0.000,0.0,0.0,0.0
17/12/2022,06:54:39,-0.001,0.0,0.0,0.0
17/12/2022,06:55:39,-0.001,0.0,0.0,0.0
17/12/2022,06:56:39,-0.001,0.0,0.0,0.0
17/12/2022,06:57:39,-0.001,0.0,0.0,0.0
17/12/2022,06:58:39,-0.001,0.0,0.0,0.0
17/12/2022,06:59:39,-0.001,0.0,0.0,0.0
17/12/2022,07:00:39,-0.001,0.0,0.0,0.0
17/12/2022,07:01:39,-0.001,0.0,0.0,0.0
17/12/2022,07:02:39,-0.001,0.0,0.0,0.0
17/12/2022,07:03:38,-0.002,0.0,0.0,0.0
17/12/2022,07:04:39,-0.001,0.0,0.0,0.0
17/12/2022,07:05:39,-0.001,0.0,0.0,0.0
17/12/2022,07:06:39,-0.001,0.0,0.0,0.0
17/12/2022,07:07:39,-0.001,0.0,0.0,0.0
17/12/2022,07:08:39,-0.001,0.0,0.0,0.0
17/12/2022,07:09:39,-0.001,0.0,0.0,0.0
17/12/2022,07:10:39,-0.001,0.0,0.0,0.0
17/12/2022,07:11:39,0.000,0.0,0.0,0.0
17/12/2022,07:12:41,-0.000,0.0,0.0,0.0
17/12/2022,07:13:39,-0.001,0.0,0.0,0.0
17/12/2022,07:14:39,-0.001,0.0,0.0,0.0
17/12/2022,07:15:39,-0.001,0.0,0.0,0.0
17/12/2022,07:16:39,-0.001,0.0,0.0,0.0
17/12/2022,07:17:38,-0.001,0.0,0.0,0.0
17/12/2022,07:18:39,-0.001,0.0,0.0,0.0
17/12/2022,07:19:39,-0.002,0.0,0.0,0.0
17/12/2022,07:20:39,-0.002,0.0,0.0,0.0
17/12/2022,07:21:39,-0.002,0.0,0.0,0.0
17/12/2022,07:22:39,-0.001,0.0,0.0,0.0
17/12/2022,07:23:39,0.000,0.0,0.0,0.0
17/12/2022,07:24:39,-0.001,0.0,0.0,0.0
17/12/2022,07:25:39,0.000,0.0,0.0,0.0
17/12/2022,07:26:39,-0.001,0.0,0.0,0.0
17/12/2022,07:27:39,-0.001,0.0,0.0,0.0
17/12/2022,07:28:38,-0.001,0.0,0.0,0.0
17/12/2022,07:29:39,-0.001,0.0,0.0,0.0
17/12/2022,07:30:39,-0.001,0.0,0.0,0.0
17/12/2022,07:31:39,-0.001,0.0,0.0,0.0
17/12/2022,07:32:39,0.000,0.0,0.0,0.0
17/12/2022,07:33:39,-0.001,0.0,0.0,0.0
17/12/2022,07:34:39,-0.000,0.0,0.0,0.0
17/12/2022,07:35:39,-0.000,0.0,0.0,0.0
17/12/2022,07:36:39,-0.000,0.0,0.0,0.0
17/12/2022,07:37:39,0.000,0.0,0.0,0.0
17/12/2022,07:38:39,-0.001,0.0,0.0,0.0
17/12/2022,07:39:39,0.000,0.0,0.0,0.0
17/12/2022,07:40:39,0.000,0.0,0.0,0.0
17/12/2022,07:41:39,-0.001,0.0,0.0,0.0
17/12/2022,07:42:39,-0.001,0.0,0.0,0.0
17/12/2022,07:43:39,-0.000,0.0,0.0,0.0
17/12/2022,07:44:39,-0.001,0.0,0.0,0.0
17/12/2022,07:45:39,-0.002,0.0,0.0,0.0
17/12/2022,07:46:39,0.000,0.0,0.0,0.0
17/12/2022,07:47:39,0.001,0.0,0.0,0.0
17/12/2022,07:48:39,0.001,0.0,0.0,0.0
17/12/2022,07:49:39,-0.000,0.0,0.0,0.0
17/12/2022,07:50:39,-0.001,0.0,0.0,0.0
17/12/2022,07:51:39,-0.000,0.0,0.0,0.0
17/12/2022,07:52:39,0.000,0.0,0.0,0.0
17/12/2022,07:53:39,0.000,0.0,0.0,0.0
17/12/2022,07:54:39,0.000,0.0,0.0,0.0
17/12/2022,07:55:39,0.000,0.0,0.0,0.0
17/12/2022,07:56:39,0.000,0.0,0.0,0.0
17/12/2022,07:57:39,0.000,0.0,0.0,0.0
17/12/2022,07:58:37,0.001,0.0,0.0,0.0
17/12/2022,07:59:39,0.000,0.0,0.0,0.0
17/12/2022,08:00:39,0.001,0.0,0.0,0.0
17/12/2022,08:01:39,0.001,0.0,0.0,0.0
17/12/2022,08:02:39,0.001,0.0,0.0,0.0
17/12/2022,08:03:39,0.001,0.0,0.0,0.0
17/12/2022,08:04:39,0.001,0.0,0.0,0.0
17/12/2022,08:05:39,0.001,0.0,0.0,0.0
17/12/2022,08:06:39,0.001,0.0,0.0,0.0
17/12/2022,08:07:39,0.002,0.0,0.0,0.0
17/12/2022,08:08:39,0.001,0.0,0.0,0.0
17/12/2022,08:09:39,0.002,0.0,0.0,0.0
17/12/2022,08:10:39,0.003,0.0,0.0,0.0
17/12/2022,08:11:39,0.002,0.0,0.0,0.0
17/12/2022,08:13:09,0.003,0.0,0.0,0.0
17/12/2022,08:14:39,0.003,0.0,0.0,0.0
17/12/2022,08:15:39,0.004,0.0,0.0,0.0
17/12/2022,08:16:39,0.004,0.0,0.0,0.0
17/12/2022,08:17:39,0.004,0.0,0.0,0.0
17/12/2022,08:18:39,0.004,0.0,0.0,0.0
17/12/2022,08:19:39,0.003,0.0,0.0,0.0
17/12/2022,08:20:39,0.004,0.0,0.0,0.0
17/12/2022,08:21:39,0.005,0.0,0.0,0.0
17/12/2022,08:22:39,0.005,0.0,0.0,0.0
17/12/2022,08:23:39,0.005,0.0,0.0,0.0
17/12/2022,08:24:39,0.005,0.0,0.0,0.0
17/12/2022,08:25:39,0.005,0.0,0.0,0.0
17/12/2022,08:26:39,0.006,0.0,0.0,0.0
17/12/2022,08:27:39,0.006,0.0,0.0,0.0
17/12/2022,08:28:39,0.007,0.0,0.0,0.0
17/12/2022,08:29:39,0.008,0.0,0.0,0.0
17/12/2022,08:30:39,0.007,0.0,0.0,0.0
17/12/2022,08:31:39,0.007,0.0,0.0,0.0
17/12/2022,08:32:39,0.008,0.0,0.001,0.001
17/12/2022,08:33:39,0.007,0.0,0.001,0.0
17/12/2022,08:34:40,0.008,0.0,0.001,0.0
17/12/2022,08:35:40,0.009,0.0,0.001,0.0
17/12/2022,08:36:40,0.009,0.0,0.001,0.0
17/12/2022,08:37:39,0.009,0.0,0.001,0.0
17/12/2022,08:38:39,0.010,0.0,0.001,0.0
17/12/2022,08:39:39,0.010,0.0,0.002,0.001
17/12/2022,08:40:39,0.011,0.0,0.002,0.0
17/12/2022,08:41:39,0.012,0.0,0.002,0.0
17/12/2022,08:42:39,0.011,0.0,0.002,0.0
17/12/2022,08:43:39,0.012,0.0,0.002,0.0
17/12/2022,08:44:39,0.012,0.0,0.003,0.001
17/12/2022,08:45:39,0.013,0.0,0.003,0.0
17/12/2022,08:46:39,0.013,0.0,0.003,0.0
17/12/2022,08:47:39,0.014,0.0,0.003,0.0
17/12/2022,08:48:39,0.014,0.0,0.003,0.0
17/12/2022,08:49:39,0.014,0.0,0.004,0.001
17/12/2022,08:50:39,0.015,0.0,0.004,0.0
17/12/2022,08:51:39,0.015,0.0,0.004,0.0
17/12/2022,08:52:39,0.014,0.0,0.004,0.0
17/12/2022,08:53:39,0.016,0.0,0.005,0.001
17/12/2022,08:54:39,0.017,0.0,0.005,0.0
17/12/2022,08:55:39,0.016,0.0,0.005,0.0
17/12/2022,08:56:39,0.016,0.0,0.005,0.0
17/12/2022,08:57:39,0.016,0.0,0.006,0.001
17/12/2022,08:58:39,0.018,0.0,0.006,0.0
17/12/2022,08:59:39,0.018,0.0,0.006,0.0
17/12/2022,09:00:39,0.019,0.0,0.007,0.001
17/12/2022,09:01:39,0.019,0.0,0.007,0.0
17/12/2022,09:02:39,0.019,0.0,0.007,0.0
17/12/2022,09:04:01,0.020,0.0,0.008,0.001
17/12/2022,09:04:38,0.021,0.0,0.008,0.0
17/12/2022,09:05:40,0.022,0.0,0.008,0.0
17/12/2022,09:06:39,0.022,0.0,0.009,0.001
17/12/2022,09:07:39,0.023,0.0,0.009,0.0
17/12/2022,09:08:39,0.023,0.0,0.009,0.0
17/12/2022,09:09:39,0.024,0.0,0.01,0.001
17/12/2022,09:10:39,0.024,0.0,0.01,0.0
17/12/2022,09:11:39,0.025,0.0,0.011,0.001
17/12/2022,09:12:39,0.024,0.0,0.011,0.0
17/12/2022,09:13:39,0.026,0.0,0.011,0.0
17/12/2022,09:14:39,0.026,0.0,0.012,0.001
17/12/2022,09:15:39,0.027,0.0,0.012,0.0
17/12/2022,09:16:39,0.027,0.0,0.013,0.001
17/12/2022,09:17:39,0.029,0.0,0.013,0.0
17/12/2022,09:18:39,0.029,0.0,0.014,0.001
17/12/2022,09:19:39,0.029,0.0,0.014,0.0
17/12/2022,09:20:39,0.030,0.0,0.015,0.001
17/12/2022,09:21:39,0.030,0.0,0.015,0.0
17/12/2022,09:22:39,0.031,0.0,0.016,0.001
17/12/2022,09:23:39,0.032,0.0,0.016,0.0
17/12/2022,09:24:39,0.032,0.0,0.017,0.001
17/12/2022,09:25:39,0.033,0.0,0.017,0.0
17/12/2022,09:26:39,0.034,0.0,0.018,0.001
17/12/2022,09:27:39,0.035,0.0,0.018,0.0
17/12/2022,09:28:39,0.036,0.0,0.019,0.001
17/12/2022,09:29:39,0.036,0.0,0.02,0.001
17/12/2022,09:30:39,0.037,0.0,0.02,0.0
17/12/2022,09:31:39,0.038,0.0,0.021,0.001
17/12/2022,09:32:39,0.038,0.0,0.021,0.0
17/12/2022,09:33:39,0.039,0.0,0.022,0.001
17/12/2022,09:34:39,0.040,0.0,0.023,0.001
17/12/2022,09:35:39,0.040,0.0,0.023,0.0
17/12/2022,09:36:39,0.041,0.0,0.024,0.001
17/12/2022,09:37:39,0.042,0.0,0.025,0.001
17/12/2022,09:38:39,0.043,0.0,0.026,0.001
17/12/2022,09:39:39,0.043,0.0,0.026,0.0
17/12/2022,09:40:40,0.043,0.0,0.027,0.001
17/12/2022,09:41:39,0.045,0.0,0.028,0.001
17/12/2022,09:42:39,0.045,0.0,0.028,0.0
17/12/2022,09:43:39,0.045,0.0,0.029,0.001
17/12/2022,09:44:39,0.046,0.0,0.03,0.001
17/12/2022,09:45:39,0.047,0.0,0.031,0.001
17/12/2022,09:46:39,0.047,0.0,0.032,0.001
17/12/2022,09:47:39,0.048,0.0,0.032,0.0
17/12/2022,09:48:40,0.048,0.0,0.033,0.001
17/12/2022,09:49:40,0.049,0.0,0.034,0.001
17/12/2022,09:50:39,0.049,0.0,0.035,0.001
17/12/2022,09:51:39,0.050,0.0,0.036,0.001
17/12/2022,09:52:39,0.050,0.0,0.036,0.0
17/12/2022,09:53:39,0.051,0.0,0.037,0.001
17/12/2022,09:54:39,0.051,0.0,0.038,0.001
17/12/2022,09:55:39,0.052,0.0,0.039,0.001
17/12/2022,09:56:39,0.052,0.0,0.04,0.001
17/12/2022,09:57:40,0.053,0.0,0.041,0.001
17/12/2022,09:58:39,0.054,0.0,0.042,0.001
17/12/2022,09:59:40,0.054,0.0,0.043,0.001
17/12/2022,10:00:39,0.055,0.0,0.043,0.0
17/12/2022,10:01:39,0.055,0.0,0.044,0.001
17/12/2022,10:02:39,0.056,0.0,0.045,0.001
17/12/2022,10:03:40,0.056,0.0,0.046,0.001
17/12/2022,10:04:39,0.058,0.0,0.047,0.001
17/12/2022,10:05:39,0.059,0.0,0.048,0.001
17/12/2022,10:06:39,0.059,0.0,0.049,0.001
17/12/2022,10:07:39,0.060,0.0,0.05,0.001
17/12/2022,10:08:39,0.062,0.0,0.051,0.001
17/12/2022,10:09:39,0.062,0.0,0.052,0.001
17/12/2022,10:10:40,0.063,0.0,0.053,0.001
17/12/2022,10:11:39,0.064,0.0,0.054,0.001